Location: North Runcton
(52.7000°N, 0.4333°E)
Time: 19:40:01
(UTC+00:00)

USA 229 - Pass Details

Date: 19 May 2025
Orbit: 872 x 1339 km, 63.4° (Epoch: 20 June)

Event Time Altitude Azimuth Distance (km) Brightness Sun altitude
Exits shadow 23:20:50 27° 173° (S) 1,753 4.2 -16.9°
Maximum altitude 23:23:44 43° 121° (ESE) 1,355 4.0 -17.0°
Drops below altitude 10° 23:30:02 10° 53° (NE) 2,899 6.4 -17.1°
Sets 23:32:57 0° 47° (NE) 3,934 7.2 -17.2°
